Date String (YYYY-MM-DD hh:mm:ss) UTC,Instrument flags,Ambient pressure (hPa),Sample flow (lpm),Bypass flow (lpm),Sample temperature (°C),Ambient temperature (°C),ASC tube jacket temperature (°C),LED temperature (°C),Box temperature (°C),Sample RH (%),Span deviation,Mass concentration (μg/m³),Mass concentration (μg/m³),Mass concentration (μg/m³)
DateTimeUTC,F1_M11,P_M11,Q1_M11,Q2_M11,T1_M11,T2_M11,T3_M11,T4_M11,T5_M11,U1_M11,ZSPAN_M11,X0_M11,X2_M11,X1_M11
2022-12-10 03:00:00,,0822.4,5.00,0.00,21.1,19.8,00.0,29.9,22.8,09.7,0000.0,0003.07,0001.30,0001.00
2022-12-10 03:01:00,,0822.5,4.99,0.00,21.1,19.7,00.0,29.9,22.8,09.8,0000.0,0003.49,0001.35,0001.03
2022-12-10 03:02:00,,0822.6,5.01,0.00,21.1,19.7,00.0,29.9,22.9,09.8,0000.0,0003.67,0001.37,0001.05
2022-12-10 03:03:00,,0822.5,5.01,0.00,21.1,19.8,00.0,29.9,22.9,09.9,0000.0,0003.94,0001.39,0001.08
2022-12-10 03:04:00,,0822.5,4.98,0.00,21.1,19.9,00.0,29.9,22.9,09.8,0000.0,0003.90,0001.40,0001.09
2022-12-10 03:05:00,,0822.6,5.00,0.00,21.1,19.9,00.0,29.9,23.0,09.8,0000.0,0003.86,0001.38,0001.09
2022-12-10 03:06:00,,0822.7,5.03,0.00,21.2,19.9,00.0,29.9,23.0,09.9,0000.0,0003.95,0001.45,0001.11
2022-12-10 03:07:00,,0822.8,4.99,0.00,21.2,19.9,00.0,29.9,23.0,09.8,0000.0,0003.61,0001.40,0001.13
2022-12-10 03:08:00,,0822.7,4.98,0.00,21.2,20.0,00.0,29.9,23.0,09.8,0000.0,0003.70,0001.43,0001.15
2022-12-10 03:09:00,,0822.7,4.99,0.00,21.2,20.0,00.0,29.9,23.1,09.7,0000.0,0003.92,0001.48,0001.16
2022-12-10 03:10:00,,0822.7,5.02,0.00,21.2,20.0,00.0,30.0,23.1,09.7,0000.0,0003.96,0001.49,0001.16
2022-12-10 03:11:00,,0822.6,4.99,0.00,21.3,20.1,00.0,30.0,23.1,09.6,0000.0,0003.37,0001.50,0001.17
2022-12-10 03:12:00,,0822.7,4.99,0.00,21.3,20.1,00.0,30.0,23.2,09.6,0000.0,0002.82,0001.46,0001.15
2022-12-10 03:13:00,,0822.6,5.00,0.00,21.3,20.1,00.0,30.0,23.2,09.5,0000.0,0002.65,0001.41,0001.13
2022-12-10 03:14:00,,0822.7,5.02,0.00,21.3,20.1,00.0,30.0,23.2,09.5,0000.0,0002.28,0001.39,0001.11
2022-12-10 03:15:00,,0822.6,5.00,0.00,21.3,20.0,00.0,30.0,23.1,09.5,0000.0,0002.38,0001.42,0001.09
2022-12-10 03:16:00,,0822.6,4.99,0.00,21.3,19.9,00.0,30.0,23.1,09.5,0000.0,0002.39,0001.43,0001.09
2022-12-10 03:17:00,,0822.6,4.99,0.00,21.3,19.9,00.0,30.0,23.1,09.5,0000.0,0002.28,0001.38,0001.07
2022-12-10 03:18:00,,0822.7,5.02,0.00,21.3,19.9,00.0,30.0,23.2,09.5,0000.0,0002.23,0001.35,0001.05
2022-12-10 03:19:00,,0822.8,5.01,0.00,21.3,20.0,00.0,30.1,23.2,09.5,0000.0,0002.16,0001.33,0001.04
2022-12-10 03:20:00,,0822.9,4.99,0.00,21.3,20.1,00.0,30.1,23.2,09.4,0000.0,0002.35,0001.31,0001.03
2022-12-10 03:21:00,,0822.9,4.99,0.00,21.3,20.1,00.0,30.1,23.2,08.7,0000.0,0002.22,0001.25,0001.01
2022-12-10 03:22:00,,0822.9,5.00,0.00,21.4,20.1,00.0,30.1,23.2,08.7,0000.0,0002.17,0001.24,0000.98
2022-12-10 03:23:00,,0822.8,5.03,0.00,21.4,20.2,00.0,30.1,23.2,08.8,0000.0,0002.13,0001.22,0000.96
2022-12-10 03:24:00,,0822.9,4.99,0.00,21.4,20.1,00.0,30.1,23.2,08.9,0000.0,0002.14,0001.22,0000.94
2022-12-10 03:25:00,,0822.8,4.98,0.00,21.4,19.9,00.0,30.1,23.2,08.7,0000.0,0002.53,0001.24,0000.92
2022-12-10 03:26:00,,0822.7,5.01,0.00,21.3,19.9,00.0,30.1,23.1,08.6,0000.0,0002.50,0001.21,0000.91
2022-12-10 03:27:00,,0822.7,4.99,0.00,21.3,19.9,00.0,30.1,23.2,08.7,0000.0,0003.95,0001.21,0000.89
2022-12-10 03:28:00,,0822.8,4.98,0.00,21.3,19.8,00.0,30.1,23.1,08.4,0000.0,0003.98,0001.21,0000.87
2022-12-10 03:29:00,,0822.7,5.04,0.00,21.3,19.8,00.0,30.1,23.1,08.4,0000.0,0004.01,0001.21,0000.85
2022-12-10 03:30:00,,0822.7,4.99,0.00,21.3,19.8,00.0,30.1,23.1,08.4,0000.0,0004.03,0001.20,0000.82
2022-12-10 03:31:00,,0822.7,4.99,0.00,21.3,19.8,00.0,30.1,23.1,08.4,0000.0,0003.91,0001.20,0000.80
2022-12-10 03:32:00,,0822.8,5.00,0.00,21.3,19.8,00.0,30.1,23.1,08.5,0000.0,0003.89,0001.20,0000.79
2022-12-10 03:33:00,,0822.8,5.03,0.00,21.3,19.9,00.0,30.1,23.1,08.6,0000.0,0003.90,0001.22,0000.79
2022-12-10 03:34:00,,0822.8,4.99,0.00,21.4,20.7,00.0,30.1,23.3,08.6,0000.0,0003.97,0001.23,0000.78
2022-12-10 03:35:00,,0822.8,4.99,0.00,21.5,21.6,00.0,30.1,23.5,08.5,0000.0,0004.03,0001.24,0000.77
2022-12-10 03:36:00,,0822.8,4.99,0.00,21.6,21.6,00.0,30.2,23.6,08.4,0000.0,0003.89,0001.26,0000.76
2022-12-10 03:37:00,,0822.8,4.99,0.00,21.6,21.3,00.0,30.2,23.6,08.3,0000.0,0003.80,0001.25,0000.75
2022-12-10 03:38:00,,0822.8,5.00,0.00,21.6,21.1,00.0,30.2,23.5,08.4,0000.0,0002.65,0001.26,0000.74
2022-12-10 03:39:00,,0823.0,5.00,0.00,21.6,20.9,00.0,30.3,23.5,08.3,0000.0,0002.40,0001.25,0000.74
2022-12-10 03:40:00,,0823.1,5.01,0.00,21.6,20.8,00.0,30.3,23.5,08.3,0000.0,0002.36,0001.22,0000.74
2022-12-10 03:41:00,,0823.1,5.01,0.00,21.6,20.6,00.0,30.3,23.5,08.2,0000.0,0002.72,0001.24,0000.73
2022-12-10 03:42:00,,0823.0,5.00,0.00,21.6,20.5,00.0,30.3,23.5,08.2,0000.0,0003.99,0001.21,0000.73
2022-12-10 03:43:00,,0822.8,4.99,0.00,21.6,20.5,00.0,30.3,23.5,08.2,0000.0,0004.42,0001.25,0000.73
2022-12-10 03:44:00,,0822.8,4.99,0.00,21.6,20.4,00.0,30.3,23.5,08.0,0000.0,0004.57,0001.26,0000.74
2022-12-10 03:45:00,,0822.8,5.01,0.00,21.6,20.4,00.0,30.3,23.5,07.7,0000.0,0004.52,0001.25,0000.74
2022-12-10 03:46:00,,0822.8,5.02,0.00,21.6,20.3,00.0,30.3,23.5,07.8,0000.0,0004.45,0001.23,0000.74
2022-12-10 03:47:00,,0822.9,5.00,0.00,21.6,20.3,00.0,30.3,23.4,07.9,0000.0,0004.55,0001.20,0000.74
2022-12-10 03:48:00,,0823.0,4.99,0.00,21.6,20.2,00.0,30.4,23.4,08.0,0000.0,0004.49,0001.17,0000.75
2022-12-10 03:49:00,,0822.9,4.98,0.00,21.6,20.2,00.0,30.4,23.4,08.1,0000.0,0004.41,0001.15,0000.75
2022-12-10 03:50:00,,0822.8,5.02,0.00,21.6,20.2,00.0,30.4,23.4,07.8,0000.0,0004.32,0001.10,0000.75
2022-12-10 03:51:00,,0822.8,5.00,0.00,21.6,20.1,00.0,30.4,23.3,07.7,0000.0,0004.37,0001.12,0000.75
2022-12-10 03:52:00,,0822.9,4.98,0.00,21.5,20.0,00.0,30.4,23.3,07.9,0000.0,0004.22,0001.12,0000.75
2022-12-10 03:53:00,,0822.9,5.00,0.00,21.5,20.0,00.0,30.4,23.3,07.9,0000.0,0002.69,0001.12,0000.75
2022-12-10 03:54:00,,0822.9,5.02,0.00,21.5,20.0,00.0,30.4,23.3,07.9,0000.0,0002.22,0001.08,0000.75
2022-12-10 03:55:00,,0822.9,4.98,0.00,21.5,19.9,00.0,30.4,23.2,07.9,0000.0,0001.91,0001.05,0000.74
2022-12-10 03:56:00,,0822.9,5.00,0.00,21.5,20.4,00.0,30.3,23.3,07.9,0000.0,0001.89,0001.03,0000.73
2022-12-10 03:57:00,,0823.0,5.01,0.00,21.6,21.5,00.0,30.3,23.6,07.7,0000.0,0001.86,0001.01,0000.72
2022-12-10 03:58:00,,0823.1,5.01,0.00,21.7,21.9,00.0,30.4,23.7,07.8,0000.0,0001.88,0001.06,0000.73
2022-12-10 03:59:00,,0823.2,5.01,0.00,21.7,21.5,00.0,30.4,23.7,07.9,0000.0,0001.81,0001.07,0000.74
